User: anonymous   Login
Location: Unspecified
(0.0000°N, 0.0000°E)
Time: 12:25:20
(UTC+00:00)
Language:

Vela 4A - Orbit

View from above orbital plane
View from above orbital plane
View from above satellite
View from above satellite

Ground track
Ground track

The orbit data is extracted from the following two-line orbital elements,

1 02765U 67040A   15030.43377278 -.00001031  00000-0  00000+0 0   241
2 02765 006.1126 334.2886 4457443 204.3431 358.2369 00.21471891 37470
Epoch (UTC): 30 January 2015 10:24:37
Eccentricity: 0.4457443
inclination: 6.1126°
perigee height: 58914 km
apogee height: 163932 km
right ascension of ascending node: 334.2886°
argument of perigee: 204.3431°
revolutions per day: 0.21471891
mean anomaly at epoch: 358.2369°
orbit number at epoch: 3747

The dashed part of the orbit path shows where the satellite is in the earth's shadow,  

DLR